Back to catalog

STARLINK-35640

AliveCommunicationsVLEO
NORAD 66536·PAYLOAD·🇺🇸 United States

Launched Nov 19, 2025 from Cape Canaveral Space Force Station

Loading…

Next Passes (next 24 hours)

TLE

FreshSource: CelesTrak SupGP

Epoch: Sep 14, 2026, 21:30 UTC

1 66536C 25265W   26257.89631944  .00002393  00000+0  86665-4 0  2570
2 66536  43.0007 289.5205 0001433 267.0991 273.2803 15.27574681    10

Track STARLINK-35640 in real time with AllMySat

Download on the App Store